Wind_Speed
9 10 10 9 9 10 11 12 13 14 15 15 15 14 14 14 13 12 12 11 11 10 9 8 8 8 8 8 7 7 7 6 6 6 7 6 6 6 6 6 6 6 6
8 10 9 9 9 9 10 11 13 14 14 14 14 14 13 13 12 12 11 10 10 9 8 8 8 8 7 7 7 7 7 6 6 6 7 7 6 6 6 6 6 6 6
8 9 9 8 8 9 10 11 12 13 13 13 13 13 13 12 12 11 10 10 9 9 8 8 8 8 7 7 7 7 7 6 6 6 6 6 6 6 6 6 5 6 6
8 8 9 8 8 8 9 10 11 12 12 13 12 12 12 12 11 10 10 9 9 8 8 8 8 7 7 7 7 6 6 6 6 6 6 6 6 6 5 5 5 5 6
7 7 8 8 8 8 9 10 11 11 12 12 12 11 11 11 10 10 9 9 9 9 8 7 7 7 7 7 6 6 6 6 6 6 6 6 6 6 5 6 6 5 6
5 6 7 7 8 9 9 10 10 11 11 11 11 11 11 11 10 9 9 8 8 8 8 7 7 7 7 6 6 6 5 6 6 6 5 5 5 5 5 6 6 5 5
5 5 7 7 7 8 9 9 10 10 10 10 10 10 11 11 10 9 8 8 7 7 7 7 7 6 6 6 6 5 5 5 5 5 5 5 5 5 5 5 5 5 5
4 5 6 7 7 8 9 9 9 9 10 10 10 10 10 9 9 8 8 7 7 7 6 6 6 6 5 5 5 5 5 5 5 4 5 5 4 4 4 4 4 4 4
4 5 5 6 7 8 8 9 9 9 9 9 9 9 9 8 8 8 7 7 7 6 6 5 5 5 5 4 4 4 5 5 4 4 4 4 4 4 4 3 3 3 3
3 4 5 6 7 7 8 8 8 8 8 8 8 9 9 9 8 7 7 6 6 6 5 5 5 5 5 4 4 4 4 4 4 4 3 3 3 3 3 3 3 2 2
2 3 5 6 7 7 8 8 8 9 8 8 8 8 9 8 8 7 7 6 6 6 5 5 5 4 4 4 4 4 4 3 3 3 3 3 3 2 2 2 1 1 1
2 3 4 6 7 8 8 8 8 9 8 8 8 8 8 8 8 7 6 6 6 5 5 5 5 4 4 4 4 3 3 3 3 2 2 1 1 1 1 0 0 0 0
2 3 4 6 7 7 8 8 8 8 8 8 7 7 8 8 7 7 6 6 6 5 5 5 5 5 4 4 4 3 3 3 2 1 1 1 1 1 1 1 1 1 1
3 4 5 6 7 7 8 9 9 8 8 8 8 7 8 8 8 7 6 6 6 6 5 5 5 5 5 5 4 3 3 2 2 1 1 0 0 1 1 1 1 1 1
4 5 5 7 7 8 9 9 9 9 9 8 8 8 9 9 9 8 7 7 7 6 6 5 5 5 5 4 4 3 3 2 2 1 1 1 1 1 1 2 2 3 2
5 6 6 7 8 9 9 9 9 10 10 9 9 9 10 10 10 9 8 7 7 7 7 6 6 6 6 5 4 4 3 2 2 2 2 1 1 1 2 2 2 3 3
7 7 7 8 9 9 9 10 10 10 11 10 10 10 11 11 11 10 9 8 8 8 8 7 7 6 6 6 5 4 4 3 3 3 2 2 1 2 2 2 2 2 3
9 9 9 9 10 10 10 11 10 11 11 11 11 12 12 13 12 11 10 9 9 9 9 9 8 7 7 7 6 5 5 4 4 3 3 2 2 2 2 2 2 2 3
8 9 9 9 10 10 11 12 12 12 12 12 12 12 12 13 13 12 11 11 10 9 10 10 9 8 8 7 7 6 5 5 4 4 3 3 2 2 3 3 3 3 3
9 9 10 10 10 10 11 13 13 13 13 13 14 13 13 13 13 12 12 12 12 11 11 11 10 9 9 8 7 6 6 5 5 5 4 3 3 3 3 3 3 3 3
11 11 10 11 11 11 12 13 14 14 15 15 15 15 14 15 14 14 13 13 12 12 11 12 11 10 9 9 8 7 6 6 6 5 5 4 3 3 3 3 3 3 4
10 11 10 10 11 12 13 14 15 16 17 17 17 16 16 16 16 15 14 14 14 13 13 13 12 12 10 10 9 8 7 6 5 6 5 5 4 4 4 4 4 4 4
11 11 12 12 12 13 13 14 15 16 17 18 17 17 17 17 17 17 16 15 14 14 14 14 14 14 12 11 10 10 9 8 7 6 6 5 5 4 4 4 4 4 4
12 13 13 13 13 14 14 14 15 16 18 19 20 19 19 19 18 18 17 16 15 15 15 15 15 15 14 13 12 11 11 10 9 8 7 7 6 5 4 4 5 5 5
13 13 13 14 15 16 17 17 17 18 18 19 21 22 22 21 19 18 17 17 16 15 15 15 16 15 15 15 14 13 13 12 11 10 9 9 8 7 6 6 6 6 6
14 14 14 15 15 15 16 16 17 19 19 19 19 20 21 21 21 20 18 17 16 15 16 16 16 17 16 16 16 15 14 14 13 12 11 11 10 9 9 8 8 7 7
Wind_Direction
110 112 112 113 114 116 118 116 113 111 113 112 112 111 111 109 107 105 104 102 101 100 98 95 94 92 92 93 92 91 89 88 91 96 100 97 96 98 99 99 95 98 102
115 119 118 120 123 125 125 123 119 115 115 113 110 109 108 105 103 101 101 100 102 101 98 95 94 88 90 92 91 92 88 87 92 95 98 100 99 99 100 102 103 103 103
120 122 122 126 129 131 133 129 125 121 118 116 113 112 110 108 107 105 102 102 102 101 99 97 95 90 88 92 92 92 89 89 92 95 99 101 100 98 100 106 106 106 108
126 128 129 130 134 138 139 136 132 127 123 119 117 116 115 113 111 109 107 106 103 102 103 102 99 95 92 93 95 96 94 92 95 98 100 101 100 97 100 106 105 109 109
126 132 135 138 143 143 142 140 139 135 129 125 122 121 120 117 115 114 111 110 108 107 107 104 104 101 99 99 99 100 97 98 98 100 102 104 101 97 97 102 103 108 112
128 139 142 144 149 149 147 143 140 139 135 131 129 127 124 120 118 117 115 114 114 112 109 107 105 102 102 104 105 105 104 104 104 104 105 106 101 99 99 100 102 103 109
127 141 145 149 155 155 153 147 143 142 140 138 138 134 130 126 124 122 120 118 118 117 113 111 110 108 108 108 108 108 107 110 110 107 104 104 102 102 102 101 100 104 108
132 143 151 158 162 162 158 152 148 147 145 143 141 138 137 135 130 128 125 120 120 120 119 117 118 116 118 116 113 111 114 115 112 110 107 105 104 108 108 106 103 105 105
144 158 164 165 166 165 164 159 156 154 151 148 146 144 144 145 139 134 132 128 127 126 127 126 126 127 130 128 122 121 122 121 118 113 112 107 112 114 108 108 106 98 96
155 173 177 178 176 174 172 168 164 162 159 157 155 152 155 154 148 141 138 136 135 136 138 138 139 137 137 136 132 132 135 129 122 111 114 114 122 121 113 115 109 100 95
161 175 188 193 188 184 183 180 175 172 169 165 162 162 163 159 155 152 148 144 145 145 147 149 151 150 145 141 142 142 144 139 125 118 120 116 119 121 118 119 113 104 103
188 189 198 196 197 195 192 189 186 183 183 178 173 173 172 169 165 163 161 156 155 155 155 155 159 161 157 157 157 154 155 149 137 123 122 116 123 138 146 158 151 147 161
215 206 207 204 207 205 202 198 194 192 193 190 186 184 182 178 175 175 175 173 169 168 164 162 163 168 171 174 175 172 169 170 164 157 125 100 134 186 235 257 250 234 231
233 225 225 217 214 213 208 205 203 200 201 197 194 193 192 188 186 186 186 185 181 180 175 172 176 179 180 182 180 181 178 176 178 181 179 221 246 250 261 262 255 252 259
253 241 235 226 219 216 213 210 207 207 209 208 205 203 201 198 197 196 196 195 194 193 190 189 189 192 192 190 190 196 190 189 189 197 218 243 248 283 287 270 254 253 259
258 250 243 234 225 220 217 211 210 212 215 215 214 213 210 207 206 205 204 205 204 204 204 204 205 206 205 204 207 212 214 211 203 203 224 230 244 285 286 278 264 257 261
259 253 246 239 233 227 223 219 220 220 222 223 223 220 216 214 213 212 212 214 213 212 212 213 215 215 212 211 213 217 216 214 219 218 219 223 260 290 293 289 293 282 270
263 256 249 240 235 235 232 227 226 226 228 231 232 225 220 218 219 219 217 218 219 217 216 217 219 217 216 216 218 220 220 219 223 216 217 232 257 281 291 304 299 297 289
264 256 250 243 238 240 241 237 232 232 234 233 233 231 226 223 222 224 224 223 220 218 218 220 222 220 218 218 217 221 223 223 222 221 226 234 249 264 283 297 302 295 293
260 251 249 248 245 247 243 239 237 237 237 236 235 235 232 228 228 227 226 225 224 223 222 224 222 221 218 215 216 220 222 225 227 228 230 236 254 263 276 285 293 290 295
259 247 248 246 246 246 245 242 239 239 238 240 240 238 236 233 232 231 227 229 230 229 226 226 222 221 218 215 215 217 219 226 229 230 232 240 248 260 263 273 282 290 290
263 257 254 251 248 248 248 247 243 242 242 243 242 239 236 235 234 235 233 232 231 229 228 228 225 223 221 218 217 220 225 225 230 234 240 244 248 255 264 273 284 288 289
264 262 256 254 252 251 252 255 250 245 243 243 242 238 236 235 235 235 235 232 230 228 229 228 226 225 225 224 224 225 228 230 232 234 239 242 242 252 262 272 286 290 285
267 262 258 256 257 254 254 257 257 252 248 244 242 241 241 239 237 236 235 232 228 230 231 230 228 226 225 226 227 228 232 235 236 237 241 243 248 254 263 275 284 287 280
268 261 260 261 265 259 256 258 257 254 249 246 242 242 242 240 237 236 237 234 233 233 233 233 231 229 229 230 231 232 235 237 237 240 243 244 249 255 263 272 282 285 281
267 262 261 262 263 261 260 262 260 253 251 249 244 241 240 238 235 233 233 232 233 234 236 237 234 232 232 232 233 234 237 238 240 242 244 245 249 255 260 265 272 276 277
Height
5886 5886 5886 5887 5888 5888 5889 5888 5889 5889 5889 5890 5890 5890 5891 5892 5892 5893 5893 5894 5894 5895 5895 5895 5896 5896 5896 5896 5896 5896 5896 5896 5896 5896 5896 5896 5895 5895 5895 5895 5894 5894 5893
5887 5887 5888 5888 5889 5890 5890 5890 5890 5890 5891 5891 5891 5892 5892 5893 5893 5894 5895 5895 5895 5896 5896 5896 5897 5897 5897 5897 5897 5897 5897 5898 5897 5897 5897 5897 5897 5896 5896 5896 5896 5895 5895
5887 5888 5888 5889 5890 5891 5891 5891 5891 5892 5892 5892 5892 5893 5893 5894 5895 5895 5896 5896 5897 5897 5898 5898 5898 5898 5899 5899 5899 5899 5899 5899 5899 5898 5898 5898 5898 5897 5897 5897 5897 5897 5897
5888 5888 5889 5890 5891 5892 5892 5892 5892 5893 5893 5893 5894 5894 5894 5895 5896 5896 5897 5897 5898 5898 5899 5899 5899 5900 5900 5900 5900 5900 5900 5900 5900 5899 5899 5899 5899 5899 5899 5898 5898 5898 5898
5889 5889 5890 5891 5892 5892 5893 5893 5893 5894 5894 5894 5895 5895 5895 5896 5897 5897 5898 5899 5899 5899 5900 5900 5901 5901 5901 5901 5901 5901 5901 5901 5901 5901 5900 5900 5900 5900 5900 5900 5899 5899 5899
5889 5890 5890 5891 5892 5893 5893 5894 5894 5894 5894 5895 5896 5896 5897 5897 5898 5898 5899 5899 5900 5900 5901 5901 5902 5902 5902 5902 5902 5902 5902 5902 5902 5902 5902 5901 5901 5901 5901 5901 5901 5901 5901
5889 5890 5891 5892 5893 5893 5894 5894 5894 5895 5895 5896 5896 5897 5897 5898 5898 5899 5900 5900 5901 5901 5901 5902 5902 5903 5903 5903 5903 5903 5903 5903 5903 5903 5903 5903 5903 5903 5903 5902 5902 5902 5902
5890 5890 5891 5892 5893 5893 5894 5895 5895 5895 5896 5896 5897 5897 5898 5899 5899 5899 5900 5901 5901 5902 5902 5903 5903 5903 5904 5904 5904 5904 5904 5904 5904 5904 5904 5904 5904 5904 5904 5903 5903 5903 5903
5890 5890 5891 5892 5893 5893 5894 5894 5895 5896 5896 5897 5897 5898 5898 5899 5899 5900 5901 5901 5902 5902 5903 5903 5903 5904 5904 5904 5905 5905 5905 5905 5905 5905 5905 5904 5905 5905 5904 5904 5904 5904 5904
5890 5890 5891 5891 5892 5893 5894 5894 5895 5896 5896 5897 5898 5898 5899 5899 5900 5900 5901 5901 5902 5902 5903 5903 5904 5904 5905 5905 5905 5906 5906 5906 5906 5906 5905 5905 5905 5905 5905 5905 5905 5904 5904
5889 5890 5890 5891 5892 5892 5893 5894 5895 5895 5896 5897 5898 5898 5899 5899 5900 5900 5901 5901 5902 5903 5903 5904 5904 5905 5905 5905 5906 5906 5906 5906 5906 5906 5906 5906 5906 5906 5906 5905 5905 5905 5905
5889 5889 5890 5890 5891 5892 5892 5893 5894 5895 5896 5896 5897 5898 5899 5899 5900 5900 5901 5902 5902 5903 5903 5904 5904 5905 5905 5906 5906 5906 5907 5907 5907 5907 5906 5906 5906 5906 5906 5906 5906 5905 5905
5888 5888 5889 5889 5890 5891 5892 5892 5893 5894 5895 5896 5897 5897 5898 5899 5900 5900 5901 5902 5902 5903 5903 5903 5904 5905 5905 5906 5906 5907 5907 5907 5907 5907 5907 5907 5907 5906 5906 5906 5906 5906 5906
5887 5887 5888 5888 5889 5890 5891 5891 5892 5893 5894 5895 5896 5897 5898 5899 5899 5900 5901 5901 5902 5902 5903 5904 5904 5905 5905 5905 5906 5906 5907 5907 5907 5907 5907 5907 5907 5907 5906 5906 5906 5906 5906
5886 5886 5887 5887 5888 5888 5889 5890 5891 5892 5893 5894 5895 5896 5897 5898 5899 5899 5900 5901 5901 5902 5903 5903 5904 5904 5905 5905 5906 5906 5906 5907 5907 5907 5907 5907 5907 5907 5906 5906 5906 5906 5906
5885 5885 5885 5886 5886 5887 5888 5889 5890 5891 5892 5893 5894 5895 5896 5897 5898 5899 5899 5900 5901 5901 5902 5903 5903 5904 5904 5905 5906 5906 5906 5906 5906 5907 5907 5906 5906 5906 5906 5906 5906 5906 5906
5883 5883 5883 5884 5885 5886 5886 5887 5888 5889 5891 5892 5893 5894 5894 5896 5897 5898 5898 5899 5900 5901 5901 5902 5903 5903 5904 5904 5905 5905 5906 5906 5906 5906 5906 5906 5906 5906 5906 5906 5906 5905 5905
5881 5881 5881 5882 5883 5884 5885 5886 5887 5888 5889 5890 5891 5892 5893 5894 5895 5896 5897 5898 5899 5900 5900 5901 5902 5902 5903 5904 5904 5905 5905 5905 5905 5906 5906 5906 5906 5906 5906 5906 5906 5905 5905
5878 5878 5879 5880 5881 5882 5882 5884 5885 5886 5887 5888 5889 5890 5891 5892 5893 5894 5895 5896 5897 5898 5899 5900 5901 5902 5902 5903 5903 5904 5904 5905 5905 5905 5906 5906 5906 5906 5905 5905 5905 5905 5905
5875 5876 5877 5878 5879 5880 5880 5881 5882 5883 5884 5885 5886 5888 5889 5890 5891 5892 5893 5894 5896 5897 5898 5899 5900 5900 5901 5902 5903 5903 5904 5904 5905 5905 5905 5905 5905 5905 5905 5905 5904 5904 5904
5872 5873 5874 5875 5876 5877 5878 5879 5880 5881 5882 5883 5883 5885 5886 5888 5889 5890 5892 5893 5894 5895 5896 5897 5898 5899 5900 5901 5902 5903 5903 5903 5904 5904 5904 5904 5904 5904 5904 5904 5904 5904 5903
5871 5871 5871 5872 5874 5874 5875 5876 5877 5878 5878 5879 5880 5882 5883 5885 5886 5888 5889 5891 5892 5893 5894 5895 5896 5897 5898 5899 5900 5901 5902 5903 5903 5903 5904 5904 5904 5904 5903 5903 5903 5903 5902
5868 5868 5869 5869 5870 5871 5872 5873 5873 5874 5875 5876 5877 5878 5880 5881 5883 5884 5886 5888 5889 5890 5892 5893 5895 5896 5897 5898 5899 5900 5901 5902 5902 5903 5903 5903 5903 5903 5903 5903 5902 5902 5901
5866 5865 5865 5866 5867 5868 5868 5869 5870 5871 5872 5873 5873 5875 5876 5878 5879 5881 5883 5884 5886 5888 5889 5891 5892 5894 5895 5896 5897 5898 5900 5900 5901 5902 5902 5902 5902 5903 5902 5902 5902 5901 5901
5862 5862 5863 5863 5863 5864 5865 5866 5866 5867 5868 5869 5870 5871 5872 5874 5876 5878 5880 5881 5883 5885 5887 5888 5890 5891 5893 5894 5895 5896 5897 5898 5899 5900 5901 5901 5901 5901 5901 5901 5901 5900 5900
5859 5859 5859 5860 5860 5860 5861 5861 5862 5863 5864 5865 5865 5867 5868 5870 5872 5874 5876 5878 5880 5882 5884 5885 5887 5888 5890 5891 5892 5894 5895 5896 5897 5898 5898 5899 5899 5900 5900 5900 5899 5899 5899